Location: ????? ????????
(38.3255°N, 23.3315°E)
Time: 19:45:18
(UTC+00:00)

Daily predictions for brighter satellites

Satellite Brightness Start Highest point End
(mag) Time Altitude Azimuth Time Altitude Azimuth Time Altitude Azimuth
CZ-4B R/B 4.2 15:31:27 10° SE 15:34:42 33° ENE 15:37:59 10° N
Cosmos 2058 Rocket 3.4 15:31:13 10° SSW 15:35:39 72° W 15:40:04 10° N
Cosmos 1782 4.5 15:33:49 10° ESE 15:35:59 14° E 15:38:08 10° NE
Cosmos 1943 4.0 15:31:56 10° N 15:36:46 28° ENE 15:41:34 10° ESE
Cosmos 2344 3.8 15:30:34 10° S 15:38:21 53° ESE 15:45:22 10° NE
Cosmos 2279 Rocket 4.0 15:32:55 10° N 15:39:11 86° E 15:45:23 10° S
COSMO-SKYMED 1 4.0 15:36:12 10° NE 15:39:23 20° E 15:42:31 10° SE
Cosmos-2242 3.5 15:37:41 10° SSE 15:41:45 40° E 15:45:49 10° NNE
Cosmos 1602 4.1 15:39:19 10° N 15:42:50 39° E 15:46:20 10° SSE
AQUARIUS 4.4 15:40:53 10° SE 15:45:08 47° ENE 15:49:25 10° N
ERS-2 3.6 15:44:07 10° SSW 15:46:48 33° W 15:49:31 10° NNW
Tiangong 0.0 15:44:33 10° W 15:47:19 28° SSW 15:50:04 10° SSE
Cosmos 2151 3.4 15:44:49 10° NNW 15:49:04 67° W 15:53:16 10° S
Cosmos 2221 4.2 15:50:37 10° ESE 15:52:26 13° E 15:53:15 12° ENE
Nadezhda 4 Rocket 4.0 15:47:59 10° S 15:54:03 66° E 16:00:07 10° NNE
Cosmos 44 3.4 15:49:24 10° NNW 15:54:45 81° ENE 15:59:49 10° SSE
Hubble Space Telescope 3.6 15:53:44 10° SW 15:55:17 12° SSW 15:56:51 10° S
USA 307 3.7 15:54:17 10° NNW 15:57:33 26° NNE 15:59:55 15° E
CZ-4B R/B 3.9 15:52:55 10° SE 15:57:38 39° ENE 16:02:16 10° N
Lacrosse 4 Rocket 2.3 15:54:45 10° N 15:58:29 28° NE 16:02:07 10° ESE
ATLAS 2AS CENTAUR R/B 4.0 15:57:01 10° N 16:01:29 18° NNE 16:04:21 14° ENE
USA 276 3.9 16:00:53 10° WNW 16:02:30 16° NNW 16:04:01 11° NNE
Cosmos 1500 3.8 15:59:22 10° NNW 16:02:49 55° W 16:06:16 10° S
BREEZE-M DEB (TANK) 4.0 15:59:58 10° SSW 16:03:26 39° ESE 16:11:50 13° ENE
CZ-2C R/B 2.5 16:02:13 10° WSW 16:04:07 19° SSW 16:05:59 10° SSE
SL-08 R/B 4.1 16:03:21 10° NE 16:07:21 29° E 16:11:22 10° SSE
Meteor 1-25 Rocket 4.4 16:05:17 10° N 16:10:44 49° ENE 16:16:07 10° SSE
Cosmos 407 Rocket 3.9 16:08:34 10° N 16:13:22 38° ENE 16:18:06 10° SE
Cosmos 2251 Rocket 3.8 16:11:43 10° N 16:16:51 45° ENE 16:21:58 10° SE
Cosmos 2056 Rocket 4.2 16:15:31 10° SSE 16:20:19 35° E 16:23:26 19° NE
USA 306 2.4 16:19:27 10° NNW 16:20:49 28° N 16:20:49 28° N
H-2A R/B 3.0 16:23:05 10° WSW 16:25:33 26° S 16:30:49 10° ESE
SMAP 4.2 16:21:13 10° S 16:25:41 46° W 16:30:10 10° NNW
SKYMED 2 3.5 16:23:18 10° NNE 16:27:39 69° ESE 16:31:57 10° S
Cosmos 1627 Rocket 4.5 16:22:43 10° S 16:28:52 64° E 16:35:08 10° NNE
SL-8 R/B 3.9 16:24:58 10° NW 16:29:38 50° NNE 16:31:50 28° E
Meteor 2-17 Rocket 4.4 16:24:30 10° S 16:30:34 67° E 16:36:39 10° NNE
Cosmos 1812 3.7 16:27:22 10° SSW 16:30:54 46° W 16:34:28 10° N
APEX 4.0 16:28:02 10° SW 16:30:56 34° WNW 16:32:56 15° N
Cosmos 2263 Rocket 4.0 16:27:49 10° WSW 16:32:27 27° WNW 16:37:08 10° N
Cosmos 1844 Rocket 2.7 16:27:13 10° S 16:32:40 61° ESE 16:36:37 19° NNE
Cosmos 1818 3.8 16:29:05 10° SW 16:34:28 70° WNW 16:38:57 15° NNE
SEDSat Delta rocket 4.4 16:29:45 10° WSW 16:34:44 37° S 16:37:28 20° ESE
Cosmos 1933 3.2 16:31:16 10° S 16:35:13 70° E 16:38:14 17° NNE
ISS -3.9 16:32:12 10° NW 16:35:33 89° NNE 16:36:51 35° SE
USA 305 2.9 16:35:26 10° NW 16:39:06 42° NE 16:39:16 42° NE
USA 234 3.8 16:34:42 15° NE 16:40:02 52° NW 16:46:18 10° WSW
Centaur D AC-28 4.1 16:15:39 10° WSW 16:40:13 46° SSW 16:44:42 16° ESE
Lacrosse 5 1.8 16:35:41 10° SW 16:40:44 84° NW 16:43:23 29° NE
Meteor 1-20 Rocket 4.4 16:35:51 10° NNW 16:41:26 74° W 16:47:06 10° S
Cosmos 1812 Rocket 4.5 16:38:41 10° SSW 16:42:51 48° W 16:47:05 10° N
Cosmos 1371 Rocket 4.0 16:39:17 10° S 16:44:23 60° ESE 16:47:06 27° NE
Cosmos 1190 Rocket 4.3 16:39:22 10° N 16:44:24 42° ENE 16:46:56 25° ESE
Meteor 1-5 Rocket 4.4 16:39:50 10° N 16:45:21 48° ENE 16:51:00 10° SSE
ATLAS CENTAUR R/B 3.2 16:46:36 10° NW 16:51:50 82° NE 17:02:18 10° SE
Cosmos 1603 3.6 16:50:18 10° NNW 16:56:00 86° ENE 17:01:38 10° SSE
ADEOS 3.4 16:50:58 10° SSE 16:56:09 74° ENE 17:01:22 10° N
Timation 2 Rocket 3.8 16:50:52 10° SSW 16:56:50 89° ESE 17:00:36 24° NNE
TRACE 4.4 16:58:51 84° NNW 16:58:56 86° WNW 17:02:28 10° SSW
Cosmos 1420 Rocket 3.9 16:56:23 10° SSW 17:01:36 88° WNW 17:04:20 30° NNE
Cosmos 1624 Rocket 3.9 17:03:19 10° SSW 17:08:34 84° WNW 17:10:39 37° NNE
Cosmos 1782 4.5 17:07:59 10° SW 17:11:31 32° WNW 17:14:39 12° NNW
COSMO-SKYMED 1 4.2 17:11:41 10° N 17:15:34 33° WNW 17:19:27 10° SW
Cosmos 1553 Rocket 3.8 17:11:24 10° N 17:17:41 69° E 17:23:49 10° SSE
COSMOS 2455 2.8 17:16:37 10° SSW 17:22:18 61° SE 17:22:18 61° SE
CZ-4B DEB 4.0 17:18:21 10° SSE 17:23:51 75° ENE 17:29:24 10° N
Cosmos 2221 3.5 17:25:19 10° SSW 17:29:21 44° W 17:29:59 41° NW
USA 307 4.4 17:29:33 10° WNW 17:31:50 29° W 17:31:50 29° W
Lacrosse 4 Rocket 3.6 17:33:16 10° NW 17:36:45 24° WSW 17:40:09 10° SSW
SME Rocket 4.2 17:41:23 18° S 17:45:15 66° W 17:52:47 10° NNW
ATLAS 2AS CENTAUR R/B 3.1 17:46:49 10° NNW 17:51:49 50° NNW 17:51:49 50° NNW
Lacrosse 5 4.4 18:20:49 10° WNW 18:22:36 16° NW 18:22:36 16° NW
